z/d,0,0,50,50,100,100,150,150,200,200,300,300,400,400,500,500,600,600,750,750,1000,1000,1250,1250,1500,1500,1750,1750,1900,1900,2000,2000
2018.12.26-01:00,1.46,240.63,1.49,241.88,1.50,250.23,1.30,253.54,1.01,253.93,.75,263.57,.53,264.28,.38,264.57,.24,269.87,.14,276.30,.11,192.07,.26,184.81,.27,184.15,.35,181.52,.41,178.11,.16,180.75
2018.12.26-02:00,1.61,242.09,1.62,242.82,1.57,250.22,1.32,252.42,1.03,251.89,.72,264.97,.52,262.93,.37,259.51,.22,264.99,.12,276.91,.13,195.59,.25,193.12,.27,188.05,.36,185.31,.41,182.40,.16,185.46
2018.12.26-03:00,1.75,245.56,1.77,246.11,1.66,252.12,1.36,251.26,1.08,249.77,.71,262.25,.54,257.01,.40,250.01,.23,252.22,.11,262.69,.16,202.64,.26,202.89,.27,194.03,.37,190.66,.42,188.11,.17,190.41
2018.12.26-04:00,1.84,249.42,1.87,250.10,1.72,254.33,1.42,250.06,1.15,247.76,.73,256.46,.59,250.37,.47,242.71,.27,242.19,.13,245.56,.21,209.49,.26,211.83,.29,199.99,.39,195.95,.43,193.80,.17,194.30
2018.12.26-05:00,1.88,252.87,1.91,253.71,1.75,256.14,1.50,249.53,1.26,247.00,.78,251.11,.66,246.86,.55,240.57,.33,238.93,.16,235.29,.26,214.14,.27,217.24,.31,203.33,.41,199.05,.45,197.41,.18,196.21
2018.12.26-06:00,1.86,254.94,1.88,255.89,1.73,256.78,1.58,250.06,1.37,248.03,.86,248.60,.73,246.99,.62,242.41,.38,239.96,.20,230.13,.31,216.83,.28,218.72,.34,203.76,.44,199.61,.47,198.49,.18,196.05
2018.12.26-07:00,1.81,255.28,1.82,256.18,1.69,255.94,1.64,251.49,1.46,250.54,.95,248.81,.77,249.23,.67,246.25,.43,242.78,.24,227.24,.34,218.12,.28,217.05,.36,202.02,.46,198.22,.50,197.57,.19,194.01
2018.12.26-08:00,1.76,254.73,1.76,255.56,1.65,254.64,1.65,253.65,1.50,254.09,1.01,250.80,.79,252.08,.70,250.72,.45,246.38,.26,225.54,.36,218.58,.28,213.12,.37,198.90,.48,195.65,.51,195.32,.19,190.59
2018.12.26-09:00,1.72,254.00,1.70,254.94,1.60,253.46,1.60,255.58,1.47,257.90,1.02,253.81,.77,254.90,.68,255.43,.46,251.00,.28,225.67,.38,219.82,.27,209.17,.39,196.30,.50,193.61,.53,193.35,.19,187.21
2018.12.26-10:00,1.65,253.09,1.62,254.05,1.56,251.88,1.50,255.61,1.37,260.80,.98,257.18,.73,257.68,.64,260.38,.44,257.01,.28,228.45,.38,222.95,.27,207.09,.40,195.47,.53,193.33,.55,192.75,.19,185.18
2018.12.26-11:00,1.58,252.14,1.56,252.79,1.55,250.29,1.44,253.24,1.26,261.63,.93,260.45,.68,260.61,.59,265.49,.42,264.69,.28,236.46,.38,230.08,.26,210.40,.40,198.47,.54,196.46,.56,195.12,.19,186.09
2018.12.26-12:00,1.53,250.25,1.51,250.92,1.56,249.04,1.47,250.30,1.19,259.91,.86,262.17,.62,262.15,.51,268.73,.36,270.66,.26,242.25,.36,235.76,.24,209.79,.39,198.97,.54,197.97,.56,195.62,.19,185.80
2018.12.26-13:00,1.55,248.38,1.51,249.47,1.60,249.14,1.57,250.00,1.21,257.84,.82,262.03,.58,261.48,.46,268.24,.31,271.69,.26,245.79,.35,241.01,.24,210.15,.39,200.89,.55,200.72,.57,197.25,.19,186.83
2018.12.26-14:00,1.63,247.27,1.58,248.53,1.66,249.75,1.66,252.14,1.26,256.97,.80,259.53,.57,257.57,.42,262.42,.27,264.55,.27,246.04,.33,245.16,.25,211.52,.39,203.84,.56,204.23,.57,199.74,.19,188.85
2018.12.26-15:00,1.71,247.84,1.66,249.09,1.72,251.16,1.70,255.60,1.30,257.60,.82,256.19,.60,252.72,.43,254.02,.27,252.83,.29,247.02,.33,250.41,.26,218.41,.40,210.66,.56,210.43,.58,205.04,.19,193.38
2018.12.26-16:00,1.76,248.93,1.71,250.28,1.74,252.51,1.68,258.29,1.31,257.75,.86,251.55,.65,247.09,.49,244.43,.33,239.43,.33,244.23,.32,251.15,.29,222.81,.41,216.45,.57,215.69,.59,209.79,.19,197.74
2018.12.26-17:00,1.81,249.96,1.77,251.11,1.78,253.16,1.64,259.37,1.32,257.00,.92,247.63,.73,243.93,.57,239.42,.41,233.09,.36,242.61,.31,250.82,.31,225.90,.41,221.03,.56,219.73,.59,213.43,.19,201.37
2018.12.26-18:00,1.87,251.00,1.85,251.50,1.84,253.23,1.63,259.26,1.35,256.11,1.01,246.16,.82,244.26,.67,239.54,.49,233.31,.39,242.81,.29,248.73,.31,227.16,.40,223.63,.54,221.78,.58,215.20,.18,203.43
2018.12.26-19:00,1.91,251.47,1.88,252.24,1.86,253.53,1.61,259.16,1.37,256.27,1.10,247.40,.89,247.08,.74,242.63,.57,236.52,.40,243.30,.26,242.28,.31,223.97,.38,221.97,.51,219.94,.56,213.30,.18,202.19
2018.12.26-20:00,1.89,251.30,1.85,252.67,1.83,253.62,1.56,258.77,1.37,257.01,1.17,250.75,.93,251.73,.77,247.78,.61,242.00,.40,245.57,.23,234.03,.29,219.54,.35,218.49,.47,215.96,.53,209.55,.18,199.52
2018.12.26-21:00,1.84,250.45,1.78,252.13,1.78,253.20,1.50,257.58,1.34,257.55,1.18,254.92,.93,256.98,.77,253.39,.62,248.16,.40,248.84,.22,224.76,.28,214.31,.32,213.27,.43,210.02,.50,204.35,.17,195.75
2018.12.26-22:00,1.80,249.50,1.73,251.52,1.74,253.15,1.46,256.15,1.29,257.74,1.13,259.14,.88,262.46,.72,259.20,.59,255.16,.36,254.15,.21,217.65,.27,210.44,.30,207.83,.41,203.58,.48,199.01,.17,192.06
2018.12.26-23:00,1.75,248.39,1.69,250.74,1.69,253.06,1.44,254.15,1.22,256.31,1.05,261.77,.80,266.82,.65,264.15,.53,262.16,.32,261.09,.21,215.18,.26,210.08,.28,204.74,.40,199.22,.48,195.75,.17,190.13
2018.12.26-24:00,1.66,247.31,1.60,249.83,1.60,252.76,1.42,252.54,1.16,253.48,.95,262.36,.70,269.93,.56,268.13,.45,268.99,.27,270.38,.20,218.39,.26,214.27,.28,205.66,.41,198.34,.49,195.48,.18,190.83
2018.12.27-01:00,1.65,246.98,1.61,249.12,1.59,252.36,1.46,252.40,1.18,251.13,.91,261.18,.62,270.48,.50,269.38,.39,273.46,.22,278.35,.20,222.53,.24,219.54,.26,207.08,.41,198.29,.49,195.91,.18,192.01
2018.12.27-02:00,1.70,246.67,1.67,248.89,1.61,252.11,1.52,253.55,1.26,250.10,.92,259.36,.59,268.20,.48,267.16,.35,273.10,.18,279.71,.21,226.81,.23,225.43,.25,209.28,.41,199.50,.48,197.42,.18,193.70
2018.12.27-03:00,1.74,247.08,1.72,249.46,1.64,252.24,1.57,255.42,1.37,249.96,.99,257.28,.60,263.37,.49,261.93,.34,266.91,.16,269.93,.23,230.64,.22,231.50,.25,213.13,.41,202.67,.48,200.68,.18,196.47
2018.12.27-04:00,1.77,249.12,1.75,251.22,1.66,253.40,1.60,257.83,1.51,251.07,1.09,255.89,.65,257.66,.53,255.91,.37,257.96,.17,252.06,.26,232.69,.23,235.49,.25,216.71,.43,206.56,.49,204.65,.18,199.57
2018.12.27-05:00,1.80,251.66,1.79,253.40,1.68,254.91,1.59,260.34,1.62,253.83,1.21,256.47,.74,253.94,.61,252.15,.43,251.65,.22,238.38,.29,232.76,.24,235.74,.27,217.99,.45,209.78,.51,208.05,.18,201.88
2018.12.27-06:00,1.86,252.85,1.85,254.43,1.72,255.00,1.54,260.52,1.64,256.41,1.27,258.05,.81,252.07,.68,250.96,.50,249.44,.28,233.70,.32,233.51,.26,235.00,.29,218.65,.48,212.81,.53,211.14,.18,203.61
2018.12.27-07:00,1.89,252.41,1.88,254.06,1.73,253.21,1.48,257.44,1.60,257.55,1.27,259.47,.87,251.51,.73,251.73,.55,250.21,.34,234.57,.34,235.25,.27,234.00,.31,218.56,.50,215.14,.54,213.33,.18,204.18
2018.12.27-08:00,1.86,251.45,1.85,253.27,1.72,250.30,1.45,253.06,1.54,258.19,1.23,261.25,.92,253.20,.77,254.55,.59,253.58,.39,238.39,.36,236.75,.27,231.13,.33,216.13,.51,215.53,.55,213.40,.17,202.47
2018.12.27-09:00,1.82,249.66,1.81,251.96,1.74,247.19,1.47,248.69,1.49,258.36,1.18,262.93,.94,256.40,.77,258.43,.59,258.33,.42,243.42,.36,237.97,.27,226.87,.34,212.11,.51,214.28,.55,211.59,.18,199.01
2018.12.27-10:00,1.78,248.64,1.77,251.18,1.78,246.48,1.54,245.45,1.44,257.77,1.11,263.47,.93,259.76,.74,262.07,.55,263.03,.42,248.55,.35,239.39,.26,223.14,.34,208.59,.50,212.68,.54,209.18,.18,195.42
2018.12.27-11:00,1.74,248.92,1.74,251.33,1.77,248.49,1.63,243.85,1.41,255.85,1.03,261.32,.86,261.44,.68,263.79,.49,265.65,.40,252.66,.33,241.52,.26,222.54,.34,208.04,.49,212.54,.54,208.14,.18,193.76
2018.12.27-12:00,1.69,249.73,1.70,251.71,1.71,250.63,1.71,244.69,1.40,253.52,.98,256.88,.79,260.34,.61,262.81,.41,264.51,.37,255.10,.32,244.40,.25,225.16,.34,210.52,.47,214.12,.52,208.83,.18,194.03
2018.12.27-13:00,1.66,250.89,1.67,251.99,1.65,251.30,1.75,247.34,1.43,252.39,1.00,253.13,.75,257.07,.57,259.45,.37,258.62,.34,255.35,.31,247.00,.25,228.74,.32,214.47,.45,216.36,.50,210.26,.17,195.24
2018.12.27-14:00,1.62,250.77,1.63,251.63,1.62,250.60,1.77,250.47,1.47,253.13,1.07,252.63,.78,254.58,.58,256.06,.37,251.06,.33,253.97,.29,248.23,.24,230.96,.31,218.28,.42,218.10,.49,211.45,.17,196.80
2018.12.27-15:00,1.58,248.30,1.61,249.69,1.63,248.76,1.76,253.24,1.48,254.76,1.14,254.35,.85,254.02,.63,253.95,.43,245.91,.35,252.02,.29,248.04,.24,232.11,.30,222.22,.41,219.76,.48,212.93,.17,199.41
2018.12.27-16:00,1.55,244.58,1.60,247.13,1.64,246.98,1.72,255.67,1.48,256.17,1.18,256.55,.94,254.33,.70,253.00,.52,243.96,.39,250.24,.30,246.80,.26,232.32,.31,225.71,.41,221.33,.49,214.76,.17,202.66
2018.12.27-17:00,1.54,240.50,1.62,245.41,1.66,245.83,1.66,257.26,1.49,257.10,1.20,258.17,1.02,255.36,.79,253.32,.63,244.75,.45,249.55,.33,245.42,.28,231.04,.32,227.28,.42,221.79,.50,215.91,.18,205.30
2018.12.27-18:00,1.58,237.46,1.69,245.05,1.73,245.50,1.62,257.32,1.50,257.60,1.20,258.77,1.08,257.52,.85,255.05,.71,247.68,.50,250.97,.34,244.42,.30,228.14,.33,226.06,.44,220.30,.52,215.45,.18,206.31
2018.12.27-19:00,1.63,236.57,1.76,245.72,1.81,245.94,1.58,255.91,1.49,257.50,1.20,258.66,1.10,260.41,.89,257.77,.77,251.84,.53,254.26,.34,243.83,.31,224.89,.34,223.14,.45,217.73,.54,213.94,.18,205.90
2018.12.27-20:00,1.62,235.47,1.77,245.43,1.83,245.79,1.51,253.40,1.44,256.37,1.18,258.12,1.07,262.94,.89,260.40,.78,256.14,.53,258.47,.34,244.25,.32,223.81,.35,221.39,.46,216.30,.55,213.09,.18,205.42
2018.12.27-21:00,1.59,234.42,1.74,244.94,1.82,245.97,1.47,250.99,1.38,255.28,1.15,257.07,1.01,264.06,.87,261.94,.77,259.46,.51,261.94,.32,244.72,.32,223.93,.34,220.44,.46,215.53,.54,212.44,.18,204.32
2018.12.27-22:00,1.56,233.34,1.72,244.57,1.82,247.16,1.45,248.99,1.33,254.48,1.12,255.42,.93,263.37,.83,262.46,.73,261.89,.46,264.37,.29,244.77,.31,224.65,.33,219.82,.45,214.91,.53,211.65,.17,202.48
2018.12.27-23:00,1.51,231.80,1.68,243.82,1.77,248.69,1.45,247.07,1.27,253.10,1.08,253.80,.86,261.37,.76,262.67,.68,264.47,.40,266.73,.26,244.51,.30,226.31,.30,219.74,.43,214.59,.51,211.04,.17,200.56
2018.12.27-24:00,1.46,229.59,1.62,242.13,1.69,249.30,1.44,245.36,1.21,250.67,1.05,253.03,.80,259.03,.70,263.01,.62,267.88,.34,269.95,.23,243.90,.28,229.01,.29,220.19,.41,214.62,.50,210.80,.17,199.13
2018.12.28-01:00,1.45,227.81,1.60,240.32,1.62,249.09,1.46,245.06,1.19,248.94,1.04,254.02,.79,257.69,.67,263.35,.57,271.30,.29,272.74,.21,241.06,.26,230.81,.27,219.26,.39,213.72,.49,210.06,.17,197.70
2018.12.28-02:00,1.48,227.50,1.62,239.43,1.59,249.03,1.51,246.76,1.22,249.29,1.06,256.65,.83,257.81,.68,263.05,.54,272.84,.25,271.70,.19,234.62,.24,230.76,.25,216.39,.38,211.82,.49,208.95,.17,196.41
2018.12.28-03:00,1.50,228.10,1.65,239.43,1.57,249.66,1.55,249.80,1.27,250.96,1.09,259.40,.90,258.45,.71,261.55,.53,270.91,.24,264.32,.20,227.69,.23,230.62,.24,214.18,.38,210.91,.49,209.05,.18,196.32
2018.12.28-04:00,1.52,228.16,1.66,239.34,1.54,249.84,1.55,252.77,1.31,252.34,1.11,260.76,.96,258.64,.78,259.31,.55,266.04,.27,254.44,.24,225.50,.23,233.07,.24,215.66,.38,212.78,.50,211.52,.18,198.27
2018.12.28-05:00,1.56,228.15,1.70,239.25,1.52,248.68,1.53,254.92,1.34,253.21,1.13,260.95,1.02,259.03,.85,258.27,.59,261.46,.33,248.32,.29,226.83,.25,235.81,.24,218.08,.38,215.45,.50,214.68,.18,201.05
2018.12.28-06:00,1.62,229.51,1.77,240.20,1.55,247.38,1.49,256.33,1.36,254.42,1.14,261.23,1.06,260.84,.92,259.84,.65,259.89,.40,246.56,.35,229.11,.27,235.11,.26,217.00,.41,215.95,.53,216.01,.19,202.63
2018.12.28-07:00,1.66,231.47,1.82,241.76,1.59,246.53,1.43,256.50,1.35,255.50,1.13,261.04,1.07,263.04,.95,262.78,.69,260.48,.46,246.98,.41,232.60,.29,233.13,.30,214.73,.44,215.47,.56,216.19,.19,203.24
2018.12.28-08:00,1.68,233.92,1.84,243.65,1.64,246.36,1.38,255.29,1.33,255.81,1.11,259.11,1.04,263.35,.93,264.28,.68,259.86,.50,246.66,.46,236.87,.32,232.52,.33,214.03,.48,215.84,.58,216.57,.20,203.77
2018.12.28-09:00,1.70,236.35,1.86,245.61,1.67,246.88,1.35,253.05,1.28,255.03,1.09,255.60,.98,261.07,.88,262.72,.66,255.97,.52,244.91,.47,241.21,.33,233.51,.35,215.02,.49,217.37,.58,217.64,.19,204.59
2018.12.28-10:00,1.67,238.56,1.83,247.44,1.66,247.79,1.32,250.30,1.22,253.21,1.06,252.22,.93,257.94,.83,259.48,.65,250.92,.55,243.47,.47,244.61,.32,234.12,.35,215.49,.48,218.46,.56,218.24,.18,204.71
2018.12.28-11:00,1.59,240.20,1.74,248.80,1.61,248.40,1.29,247.07,1.17,250.28,1.04,249.96,.89,255.61,.80,257.07,.66,248.12,.56,243.91,.45,246.90,.30,232.90,.34,214.01,.47,217.93,.53,217.28,.17,203.18
2018.12.28-12:00,1.50,241.34,1.65,249.72,1.55,248.81,1.28,244.84,1.16,247.76,1.04,249.37,.87,254.75,.79,256.41,.68,248.13,.57,246.53,.41,248.22,.28,228.35,.34,210.23,.46,215.28,.51,214.17,.17,199.86
2018.12.28-13:00,1.45,241.33,1.58,249.60,1.51,248.83,1.31,244.51,1.17,247.39,1.05,250.89,.86,255.28,.78,256.76,.68,249.70,.57,250.68,.37,248.66,.26,220.70,.34,205.46,.45,211.38,.51,209.68,.17,195.77
2018.12.28-14:00,1.45,238.88,1.56,247.11,1.51,247.10,1.35,244.00,1.18,247.38,1.04,252.97,.85,255.83,.78,256.80,.69,251.32,.56,255.37,.34,249.27,.27,215.17,.36,203.82,.46,209.47,.51,206.92,.18,193.89
2018.12.28-15:00,1.48,236.05,1.56,243.89,1.51,244.66,1.38,242.81,1.15,245.84,.99,253.83,.83,255.23,.77,256.00,.70,252.33,.54,259.52,.33,249.80,.29,215.18,.38,207.12,.48,211.17,.54,207.59,.19,195.27
2018.12.28-16:00,1.52,234.67,1.57,241.49,1.50,242.32,1.40,242.06,1.13,242.58,.94,252.45,.82,253.25,.76,254.40,.71,252.70,.53,262.22,.33,249.40,.32,218.72,.41,212.97,.51,214.80,.57,210.19,.20,198.43
2018.12.28-17:00,1.58,236.10,1.60,241.39,1.53,241.29,1.45,242.90,1.19,240.13,.96,249.87,.84,250.76,.79,252.73,.73,253.03,.51,263.32,.34,246.87,.36,221.23,.43,217.17,.53,216.89,.60,211.51,.20,200.22
2018.12.28-18:00,1.64,240.75,1.65,243.97,1.60,243.03,1.50,245.79,1.28,240.64,1.02,248.31,.90,249.08,.83,251.83,.76,253.64,.49,262.44,.35,241.86,.39,221.69,.45,218.59,.55,216.55,.63,210.91,.21,199.91
2018.12.28-19:00,1.67,243.62,1.67,245.99,1.63,244.58,1.50,247.81,1.34,242.10,1.07,247.11,.95,247.18,.85,250.93,.77,254.09,.47,259.91,.37,237.34,.41,223.33,.46,220.54,.57,216.81,.66,211.09,.21,200.02
2018.12.28-20:00,1.68,244.30,1.67,246.60,1.64,244.70,1.48,247.37,1.36,242.57,1.09,244.87,.97,244.22,.83,249.09,.74,253.87,.45,255.67,.39,234.71,.43,227.03,.47,224.40,.58,218.92,.68,212.96,.21,201.58
2018.12.28-21:00,1.66,244.67,1.64,247.33,1.61,244.73,1.44,246.04,1.33,242.54,1.08,242.08,.97,241.13,.78,246.21,.69,252.60,.43,249.55,.41,233.28,.43,231.00,.46,228.41,.59,221.58,.69,215.28,.22,203.66
2018.12.28-22:00,1.62,244.79,1.59,247.78,1.58,244.74,1.41,245.16,1.29,243.11,1.05,240.29,.95,239.02,.73,242.63,.64,250.23,.41,243.38,.42,232.07,.41,233.66,.44,230.78,.58,223.33,.68,216.64,.22,204.75
2018.12.28-23:00,1.54,243.71,1.51,247.03,1.54,244.57,1.38,245.24,1.23,244.62,1.01,240.43,.92,238.63,.70,239.43,.59,247.45,.40,239.16,.42,230.93,.37,234.69,.41,231.14,.57,224.15,.67,217.03,.22,204.79
2018.12.28-24:00,1.46,240.71,1.44,244.40,1.49,243.84,1.33,245.56,1.16,246.07,.95,241.86,.89,240.45,.67,238.14,.56,245.66,.39,237.29,.41,230.25,.33,233.90,.37,229.45,.56,224.20,.65,216.60,.22,204.08
2018.12.29-01:00,1.45,237.95,1.43,241.63,1.48,243.69,1.32,246.59,1.12,247.47,.92,244.08,.85,245.12,.65,240.10,.54,246.48,.38,236.83,.38,229.24,.28,229.14,.33,223.83,.53,222.38,.62,214.44,.21,201.83
2018.12.29-02:00,1.45,235.30,1.44,238.84,1.46,243.43,1.30,247.46,1.11,248.44,.89,246.13,.80,251.02,.63,243.97,.52,249.06,.38,236.90,.37,228.75,.25,222.04,.31,216.30,.50,220.04,.60,211.95,.21,199.82
2018.12.29-03:00,1.47,232.58,1.46,236.03,1.43,242.08,1.26,247.21,1.09,248.48,.85,246.93,.72,255.81,.59,247.60,.48,251.28,.39,236.86,.37,230.11,.25,217.95,.31,211.77,.49,219.35,.59,211.05,.22,199.80
2018.12.29-04:00,1.49,232.01,1.49,235.34,1.42,240.79,1.22,246.00,1.05,247.48,.81,245.51,.64,257.00,.56,248.97,.45,250.61,.41,236.35,.39,232.83,.27,218.17,.33,211.48,.50,220.50,.59,211.89,.22,201.58
2018.12.29-05:00,1.53,235.14,1.53,238.07,1.47,241.76,1.23,245.35,1.04,246.37,.81,242.67,.59,254.41,.53,247.62,.43,246.34,.45,235.32,.41,235.17,.29,219.57,.36,212.94,.51,221.95,.60,213.30,.22,203.94
2018.12.29-06:00,1.56,238.76,1.56,240.55,1.52,242.98,1.27,244.54,1.04,244.48,.84,240.15,.57,250.09,.52,245.00,.44,240.90,.49,234.76,.44,237.03,.33,221.43,.39,215.44,.53,223.46,.62,215.04,.22,206.56
2018.12.29-07:00,1.58,239.11,1.59,240.84,1.55,242.33,1.30,241.75,1.06,240.41,.89,237.97,.57,244.74,.53,242.02,.47,236.34,.54,235.03,.47,238.75,.36,223.81,.42,218.96,.55,225.46,.62,217.40,.22,209.74
2018.12.29-08:00,1.62,238.05,1.65,240.58,1.61,241.56,1.36,238.09,1.11,235.28,.94,235.87,.58,238.26,.54,238.63,.51,233.00,.58,235.60,.48,239.80,.38,225.48,.44,222.32,.55,227.26,.62,219.78,.21,212.99
2018.12.29-09:00,1.62,238.13,1.66,241.49,1.62,241.90,1.40,235.99,1.16,231.42,.96,234.00,.61,231.00,.55,234.15,.54,230.26,.61,236.22,.48,239.88,.39,226.03,.46,224.74,.55,228.16,.61,221.60,.20,215.62
2018.12.29-10:00,1.58,238.70,1.63,242.87,1.59,242.81,1.42,236.25,1.19,229.77,.95,232.48,.66,224.52,.58,228.57,.59,227.57,.62,236.83,.47,239.49,.40,225.83,.46,226.09,.54,227.99,.58,222.49,.19,217.35
2018.12.29-11:00,1.52,239.00,1.59,244.00,1.56,243.89,1.40,238.35,1.20,230.60,.92,232.24,.71,221.72,.62,224.71,.63,226.24,.62,237.80,.45,238.41,.39,224.38,.45,225.32,.52,225.76,.54,221.26,.17,217.00
2018.12.29-12:00,1.45,238.76,1.54,244.76,1.52,244.96,1.36,240.70,1.19,232.76,.87,233.17,.73,222.90,.65,224.41,.65,227.55,.61,239.55,.42,236.54,.39,221.75,.43,221.90,.50,221.07,.50,217.06,.16,213.74
2018.12.29-13:00,1.39,237.32,1.50,244.49,1.49,245.13,1.30,241.41,1.17,234.58,.83,234.11,.74,226.52,.67,227.32,.66,231.33,.58,242.28,.40,234.67,.38,218.90,.42,216.91,.49,214.96,.48,210.54,.15,208.23
2018.12.29-14:00,1.34,232.94,1.45,241.66,1.45,242.90,1.24,239.32,1.14,234.72,.79,233.34,.73,230.20,.68,231.75,.63,236.53,.54,246.14,.39,234.14,.37,217.95,.42,213.65,.50,210.55,.49,205.13,.16,203.66
2018.12.29-15:00,1.30,225.84,1.40,236.31,1.40,238.47,1.21,235.59,1.13,233.96,.80,230.96,.73,233.23,.69,236.24,.60,241.61,.50,250.50,.37,234.76,.37,219.25,.44,213.46,.53,209.15,.52,202.75,.17,201.73
2018.12.29-16:00,1.31,219.61,1.39,231.14,1.38,233.91,1.24,232.41,1.13,233.26,.84,228.95,.73,235.65,.70,240.23,.57,245.46,.45,253.99,.37,235.24,.37,221.65,.45,215.21,.56,209.79,.56,202.57,.19,201.59
2018.12.29-17:00,1.38,218.68,1.44,229.79,1.43,232.24,1.32,231.84,1.17,232.96,.91,229.00,.72,236.43,.70,243.03,.54,246.86,.42,254.16,.37,234.37,.37,224.08,.47,217.64,.60,211.27,.60,203.36,.20,202.32
2018.12.29-18:00,1.49,222.81,1.55,232.37,1.54,234.17,1.43,233.70,1.22,233.03,.97,230.12,.70,234.36,.68,243.33,.50,244.33,.39,249.29,.38,232.50,.37,226.67,.49,221.09,.62,213.79,.63,205.36,.21,204.09
2018.12.29-19:00,1.60,226.59,1.67,235.29,1.66,236.57,1.51,235.30,1.26,232.29,.98,230.02,.69,229.37,.65,240.25,.48,237.47,.38,240.88,.40,231.29,.38,230.32,.51,226.43,.64,218.02,.66,209.29,.22,207.51
2018.12.29-20:00,1.66,229.17,1.74,236.92,1.71,238.05,1.55,236.19,1.28,230.99,.97,228.69,.70,223.98,.63,235.12,.48,228.91,.40,232.28,.41,230.51,.39,233.60,.53,232.22,.66,222.91,.67,214.10,.22,211.61
2018.12.29-21:00,1.66,229.72,1.73,236.99,1.70,238.16,1.55,236.66,1.29,230.20,.98,227.92,.75,221.09,.66,231.87,.53,223.81,.43,226.43,.43,229.10,.40,234.40,.54,236.24,.66,226.65,.67,217.94,.22,214.52
2018.12.29-22:00,1.64,227.91,1.71,235.51,1.67,236.80,1.52,236.64,1.31,230.40,.99,228.54,.80,221.27,.69,232.11,.58,223.42,.48,224.01,.44,227.18,.38,232.12,.52,237.64,.63,228.25,.65,219.77,.21,215.14
2018.12.29-23:00,1.64,226.16,1.70,234.41,1.66,235.67,1.49,236.66,1.32,231.45,.98,229.38,.83,222.64,.70,233.67,.60,224.84,.51,223.68,.46,225.43,.37,227.63,.49,236.69,.59,227.83,.61,219.91,.19,213.90
2018.12.29-24:00,1.63,225.76,1.68,234.38,1.63,235.46,1.43,236.86,1.30,233.19,.97,230.16,.84,223.93,.68,234.91,.60,226.32,.52,224.27,.47,224.27,.36,222.45,.45,233.92,.56,226.01,.57,219.01,.19,211.82
2018.12.30-01:00,1.63,226.81,1.68,234.95,1.61,235.83,1.39,236.96,1.26,235.66,.96,232.34,.85,226.37,.65,236.15,.59,228.01,.52,225.51,.47,223.21,.36,216.71,.42,229.04,.52,222.51,.54,216.41,.18,208.45
2018.12.30-02:00,1.66,227.61,1.70,234.71,1.62,235.24,1.37,235.17,1.21,236.45,.94,234.59,.84,229.10,.60,236.24,.57,229.55,.51,227.47,.46,223.00,.36,213.29,.39,224.57,.49,219.27,.51,213.84,.17,205.50
2018.12.30-03:00,1.71,227.49,1.74,233.47,1.66,233.38,1.40,231.32,1.18,234.02,.90,234.34,.80,230.87,.55,233.60,.55,230.82,.50,229.96,.44,224.16,.36,213.91,.38,223.14,.48,218.21,.49,213.13,.17,204.95
2018.12.30-04:00,1.76,228.58,1.77,233.72,1.69,233.14,1.47,229.27,1.18,230.99,.87,231.88,.74,231.86,.52,229.49,.54,231.43,.48,231.86,.43,225.58,.37,216.10,.38,222.69,.47,217.82,.48,212.86,.17,205.54
2018.12.30-05:00,1.73,231.84,1.73,236.24,1.67,235.60,1.52,230.81,1.20,230.02,.88,229.37,.71,232.16,.52,225.78,.55,230.92,.49,232.73,.44,226.61,.39,218.60,.40,222.03,.48,217.37,.49,212.57,.18,206.54
2018.12.30-06:00,1.69,235.08,1.68,238.28,1.62,237.71,1.54,233.41,1.24,230.71,.92,228.32,.70,232.00,.55,223.55,.58,230.79,.50,233.64,.46,227.61,.42,221.35,.42,221.90,.50,217.25,.51,212.70,.18,207.84
2018.12.30-07:00,1.71,235.04,1.69,237.69,1.65,237.11,1.58,234.17,1.28,230.20,.95,226.97,.69,229.73,.58,221.44,.60,231.21,.52,234.70,.48,229.15,.45,225.18,.44,224.13,.51,218.91,.52,214.77,.18,210.61
2018.12.30-08:00,1.77,233.46,1.75,236.29,1.70,235.71,1.62,233.84,1.32,228.57,.98,224.40,.68,224.23,.62,218.69,.61,231.00,.53,234.93,.50,230.66,.47,229.30,.47,228.08,.53,222.04,.53,218.75,.17,215.42
2018.12.30-09:00,1.86,232.80,1.84,235.60,1.78,234.94,1.66,233.38,1.38,227.06,1.02,221.99,.71,217.93,.67,217.42,.63,230.76,.55,234.55,.51,231.73,.49,231.97,.48,231.06,.53,224.26,.52,222.39,.17,220.56
2018.12.30-10:00,1.94,233.32,1.92,235.96,1.85,235.09,1.70,233.13,1.45,226.54,1.09,221.13,.78,214.59,.73,218.76,.65,231.14,.56,234.23,.51,232.40,.48,232.41,.47,231.17,.52,223.91,.50,223.89,.15,224.29
2018.12.30-11:00,1.98,234.59,1.96,237.10,1.87,236.00,1.71,233.31,1.50,227.51,1.16,222.30,.87,215.54,.78,222.03,.67,232.33,.56,234.33,.50,232.51,.45,230.35,.45,227.52,.50,220.26,.46,221.92,.13,224.77
2018.12.30-12:00,1.99,236.08,1.96,238.54,1.86,237.25,1.70,233.74,1.53,229.59,1.21,225.18,.93,219.65,.81,225.83,.68,233.92,.56,234.69,.48,231.85,.43,226.23,.43,220.99,.49,213.97,.43,216.07,.11,220.39
2018.12.30-13:00,1.95,236.67,1.92,239.19,1.80,237.57,1.68,233.39,1.53,231.54,1.23,228.91,.97,225.17,.83,229.27,.67,235.61,.55,235.20,.46,230.88,.41,221.79,.43,214.29,.50,207.33,.42,208.06,.11,211.71
2018.12.30-14:00,1.90,235.30,1.87,237.92,1.74,235.57,1.67,231.63,1.51,232.23,1.23,232.15,.97,230.30,.82,231.71,.64,237.10,.52,235.89,.43,230.50,.39,219.07,.43,209.97,.52,202.62,.43,201.13,.11,203.21
2018.12.30-15:00,1.90,233.69,1.86,236.30,1.73,233.19,1.71,230.26,1.49,231.97,1.18,234.14,.93,233.66,.79,232.48,.58,237.30,.47,235.60,.39,230.07,.38,218.34,.44,208.50,.54,200.46,.45,197.03,.12,198.32
2018.12.30-16:00,1.93,233.52,1.88,236.04,1.75,232.78,1.75,230.60,1.46,231.47,1.10,234.61,.86,234.56,.74,231.33,.51,234.59,.42,232.53,.37,228.23,.37,219.15,.45,209.90,.56,200.98,.49,196.49,.14,197.76
2018.12.30-17:00,1.94,234.25,1.88,236.82,1.75,233.91,1.74,232.18,1.44,231.16,1.01,233.29,.79,232.88,.70,228.57,.47,228.32,.40,226.24,.35,224.72,.38,221.12,.47,213.90,.58,203.93,.54,199.19,.16,200.38
2018.12.30-18:00,1.92,234.81,1.85,237.39,1.72,235.11,1.70,233.96,1.43,231.29,.94,230.34,.75,229.44,.68,225.43,.47,221.03,.40,219.34,.36,220.41,.39,223.06,.50,218.97,.60,208.07,.58,203.38,.18,203.97
2018.12.30-19:00,1.91,234.76,1.85,237.21,1.70,235.38,1.66,234.72,1.44,231.36,.92,226.28,.73,225.22,.68,222.97,.49,216.23,.44,215.09,.38,216.80,.40,224.23,.52,223.99,.62,212.51,.60,207.95,.19,207.35
2018.12.30-20:00,1.95,233.18,1.89,235.35,1.73,233.66,1.66,233.30,1.46,230.39,.95,221.70,.73,220.47,.68,220.97,.53,214.15,.47,214.09,.40,215.19,.41,225.27,.53,229.01,.62,217.27,.61,213.00,.19,211.26
2018.12.30-21:00,2.00,230.13,1.94,232.06,1.78,230.51,1.69,230.78,1.49,229.20,1.02,218.22,.76,216.06,.68,219.09,.56,213.84,.50,214.91,.43,215.13,.42,226.00,.53,233.58,.61,222.17,.60,218.60,.18,216.18
2018.12.30-22:00,2.06,227.68,2.00,229.48,1.83,228.10,1.73,229.15,1.52,228.79,1.12,217.37,.82,213.28,.70,217.36,.59,214.42,.52,215.86,.45,215.16,.42,225.50,.51,236.61,.59,226.18,.56,223.98,.16,221.81
2018.12.30-23:00,2.13,227.91,2.08,229.62,1.89,227.87,1.76,228.80,1.53,228.81,1.22,218.90,.90,212.67,.73,216.25,.63,215.40,.55,216.08,.48,214.76,.42,223.58,.46,237.40,.53,228.49,.50,228.32,.13,227.82
2018.12.30-24:00,2.17,230.03,2.12,231.73,1.92,228.96,1.75,228.71,1.53,228.70,1.29,221.85,.97,214.02,.76,216.26,.66,216.65,.57,215.83,.51,214.65,.42,220.74,.41,235.55,.47,228.41,.41,230.35,.10,232.57